Flag for China Weather past 2 weeks in Shantou, Guangdong, China

Now
77 °F

Partly cloudy.


Feels Like: 78 °F
Forecast: 76 / 83 °F
Wind: 6 mph from Northeast

Location: Shantou Airport

Current Time: Sep 2, 2015 at 6:27:56 AM

Latest Report: Sep 2, 2015 at 5:00 AM


Visibility: N/A

Pressure: 29.86 "Hg

Humidity: 100%

Dew point: 77 °F

Location of ShantouLocation

Historic Weather in Shantou — Graph

°F

Shantou temperature yesterday

Maximum temperature yesterday: 84 °F (at 10:00 AM)
Minimum temperature yesterday: 73 °F (at 2:00 PM)
Average temperature yesterday: 78 °F

Past Weeks' High & Low Weather Summary

 TemperatureHumidityPressure
High99 °F (Aug 21, 3:00 PM)100% (Aug 18, 6:00 AM)29.86 "Hg (Aug 18, 6:00 AM)
Low73 °F (Sep 1, 2:00 PM)36% (Aug 25, 2:00 PM)29.42 "Hg (Aug 22, 5:00 PM)
Average84 °F82%29.69 "Hg
* Reported Aug 18 4:00 AM — Sep 2 4:00 AM, Shantou, Weather by CustomWeather, © 2015

Note: Actual official high and low records may vary slightly from our data, if they occured in-between our weather recording intervals... More about our weather records

Advertising

Shantou weather history for previous 24 hours

 ConditionsComfort  
Time TempWeatherWind HumidityBarometerVisibility
4:00 AM
Wed, Sep 2
77 °FPartly cloudy.3 mph100%29.86 "HgN/A
3:00 AM77 °FSprinkles. Partly cloudy.3 mph100%29.86 "HgN/A
2:00 AM77 °FSprinkles. Partly cloudy.3 mph100%29.86 "HgN/A
1:00 AM77 °FSprinkles. Partly cloudy.6 mph94%29.86 "HgN/A
12:00 AM77 °FSprinkles. Partly cloudy.3 mph100%29.86 "Hg5 mi
11:00 PM
Tue, Sep 1
77 °FPassing clouds.3 mph100%29.86 "Hg5 mi
10:00 PM77 °FPassing clouds.6 mph100%29.86 "HgN/A
9:00 PM77 °FPassing clouds.6 mph100%29.83 "HgN/A
8:00 PM77 °FPassing clouds.3 mph100%29.83 "HgN/A
7:00 PM77 °FMostly cloudy.1 mph100%29.80 "HgN/A
6:00 PM77 °FMore clouds than sun.3 mph100%29.77 "Hg5 mi
5:00 PM75 °FFog.3 mph100%29.77 "Hg3 mi
4:00 PM75 °FSprinkles. More clouds than sun.3 mph100%29.77 "Hg4 mi
3:00 PM73 °FThunderstorms. More clouds than sun.6 mph100%29.77 "Hg4 mi
2:00 PM73 °FThunderstorms. More clouds than sun.6 mph100%29.80 "Hg1 mi
1:00 PM75 °FStrong thunderstorms. Fog.13 mph100%29.80 "Hg1 mi
12:00 PM84 °FPartly sunny.8 mph89%29.80 "Hg5 mi
11:00 AM84 °FBroken clouds.3 mph84%29.80 "HgN/A
10:00 AM84 °FScattered clouds.3 mph84%29.80 "Hg5 mi
9:00 AM81 °FPartly sunny.3 mph94%29.80 "Hg4 mi
8:00 AM79 °FFog.6 mph100%29.77 "Hg3 mi
7:00 AM79 °FFog.3 mph100%29.77 "Hg2 mi
6:00 AM79 °FFog.3 mph100%29.77 "Hg2 mi
Weather by CustomWeather, © 2015

See weather overviewHow to use our weather pages